Weather History for South Haven, MI

Change the Weather History Date:

Monday, February 18, 2013

  Actual Average (KBIV) Record (KBIV)
Temperature  
Mean Temperature 34 °F 29 °F  
Max Temperature 47 °F 36 °F 57 °F (1961)
Min Temperature 21 °F 22 °F -5 °F (1979)
Degree Days  
Heating Degree Days 31 36  
Month to date heating degree days 680  
Since 1 July heating degree days 4154  
Cooling Degree Days 0 0  
Month to date cooling degree days 0  
Year to date cooling degree days 0  
Moisture  
Dew Point 26 °F    
Average Humidity 64    
Maximum Humidity 94    
Minimum Humidity 52    
Precipitation  
Precipitation 0.00 in 0.07 in 0.56 in (1961)
Month to date precipitation 1.03  
Year to date precipitation 3.12  
Sea Level Pressure  
Sea Level Pressure 29.77 in    
Wind  
Wind Speed 11 mph (SSE)    
Max Wind Speed 22 mph    
Max Gust Speed 32 mph    
Visibility 10 miles    
Events Rain    
T = Trace of Precipitation, MM = Missing Value Source: NWS Daily Summary

Daily Weather History Graph

Daily Weather History Graph

Search for Another Location

Airport:

Trip Planner

Search our weather history database for the weather conditions in past years. The results will help you decide how hot, cold, wet, or windy it might be!

Date:

Astronomy

Feb. 18, 2013 Rise Set
Actual Time 7:36 AM EST 6:21 PM EST
Civil Twilight 7:08 AM EST 6:50 PM EST
Nautical Twilight 6:35 AM EST 7:22 PM EST
Astronomical Twilight 6:03 AM EST 7:55 PM EST
Moon 12:03 PM EST (2/18) 2:19 AM EST (2/18)
Length of Visible Light 11h 41m
Length of Day
10h 44m
First Quarter, 58% of the Moon is Illuminated
Feb 18
First Quarter
Feb 25
Full
Mar 4
Last Quarter
Mar 11
New
Mar 19
First Quarter

Hourly Weather History & Observations

Time (EST) Temp. Windchill Dew Point Humidity Pressure Visibility Wind Dir Wind Speed Gust Speed Precip Events Conditions
12:15 AM 21.9 °F 13.4 °F 10.0 °F 60% 30.09 in 10.0 mi SE 6.9 mph - N/A   Clear
12:34 AM 22.1 °F 14.7 °F 10.4 °F 61% 30.09 in 10.0 mi SSE 5.8 mph - N/A   Clear
1:14 AM 22.8 °F 13.6 °F 10.8 °F 60% 30.08 in 10.0 mi SE 8.1 mph - N/A   Clear
1:35 AM 22.6 °F 13.4 °F 10.8 °F 60% 30.07 in 10.0 mi SE 8.1 mph - N/A   Clear
1:55 AM 23.0 °F 15.8 °F 10.4 °F 59% 30.07 in 10.0 mi SE 5.8 mph - N/A   Clear
2:14 AM 23.5 °F 13.7 °F 10.4 °F 57% 30.06 in 10.0 mi SSE 9.2 mph - N/A   Scattered Clouds
2:35 AM 24.3 °F 14.6 °F 10.4 °F 56% 30.06 in 10.0 mi SE 9.2 mph - N/A   Overcast
2:55 AM 24.8 °F 14.6 °F 10.4 °F 54% 30.04 in 10.0 mi SSE 10.4 mph - N/A   Overcast
3:15 AM 25.7 °F 16.4 °F 10.4 °F 52% 30.02 in 10.0 mi SSE 9.2 mph - N/A   Overcast
3:35 AM 26.2 °F 15.2 °F 10.9 °F 52% 30.02 in 10.0 mi SSE 12.7 mph 17.3 mph N/A   Overcast
3:54 AM 26.6 °F 16.8 °F 11.1 °F 52% 30.00 in 10.0 mi SE 10.4 mph 16.1 mph N/A   Mostly Cloudy
4:15 AM 26.6 °F 16.8 °F 11.5 °F 53% 30.00 in 10.0 mi SSE 10.4 mph - N/A   Scattered Clouds
4:35 AM 27.0 °F 18.0 °F 11.7 °F 53% 29.98 in 10.0 mi SSE 9.2 mph - N/A   Clear
4:55 AM 27.3 °F 17.1 °F 12.0 °F 53% 29.97 in 10.0 mi SSE 11.5 mph - N/A   Clear
5:15 AM 26.6 °F 16.8 °F 11.8 °F 54% 29.95 in 10.0 mi SE 10.4 mph 18.4 mph N/A   Clear
5:34 AM 26.4 °F 16.0 °F 12.2 °F 55% 29.94 in 10.0 mi SE 11.5 mph 16.1 mph N/A   Clear
5:55 AM 26.4 °F 15.5 °F 12.6 °F 56% 29.92 in 10.0 mi SE 12.7 mph 20.7 mph N/A   Clear
6:14 AM 27.3 °F 17.1 °F 12.7 °F 54% 29.91 in 10.0 mi SSE 11.5 mph 20.7 mph N/A   Clear
6:35 AM 27.5 °F 16.8 °F 13.1 °F 55% 29.90 in 10.0 mi SSE 12.7 mph 21.9 mph N/A   Clear
6:55 AM 27.5 °F 15.9 °F 13.1 °F 55% 29.89 in 10.0 mi SE 15.0 mph 21.9 mph N/A   Clear
7:15 AM 28.0 °F 17.5 °F 13.6 °F 55% 29.88 in 10.0 mi SSE 12.7 mph 19.6 mph N/A   Clear
7:35 AM 27.9 °F 17.8 °F 13.8 °F 56% 29.87 in 10.0 mi SE 11.5 mph 19.6 mph N/A   Clear
7:54 AM 28.0 °F 17.0 °F 14.0 °F 56% 29.87 in 10.0 mi SSE 13.8 mph 19.6 mph N/A   Clear
8:15 AM 29.1 °F 18.4 °F 14.9 °F 55% 29.86 in 10.0 mi SSE 13.8 mph 24.2 mph N/A   Clear
8:35 AM 29.7 °F 21.3 °F 14.9 °F 54% 29.86 in 10.0 mi SSE 9.2 mph 17.3 mph N/A   Clear
9:14 AM 31.6 °F 22.6 °F 16.7 °F 54% 29.84 in 10.0 mi SSE 11.5 mph 19.6 mph N/A   Clear
9:35 AM 32.4 °F 24.0 °F 17.8 °F 55% 29.83 in 10.0 mi SSE 10.4 mph 19.6 mph N/A   Clear
9:55 AM 32.9 °F 24.1 °F 18.7 °F 56% 29.82 in 10.0 mi SSE 11.5 mph 19.6 mph N/A   Clear
10:15 AM 34.0 °F 26.0 °F 19.4 °F 55% 29.82 in 10.0 mi SSE 10.4 mph 17.3 mph N/A   Clear
10:34 AM 35.6 °F 25.9 °F 20.3 °F 54% 29.81 in 10.0 mi SSE 16.1 mph 24.2 mph N/A   Clear
10:54 AM 37.0 °F 28.9 °F 21.9 °F 54% 29.80 in 10.0 mi SSE 12.7 mph 21.9 mph N/A   Clear
11:14 AM 37.8 °F 29.4 °F 22.8 °F 55% 29.79 in 10.0 mi SSE 13.8 mph 20.7 mph N/A   Clear
11:35 AM 38.7 °F 30.9 °F 23.7 °F 55% 29.79 in 10.0 mi SSE 12.7 mph 23.0 mph N/A   Clear
11:55 AM 39.4 °F 33.2 °F 24.4 °F 55% 29.78 in 10.0 mi SE 9.2 mph 17.3 mph N/A   Clear
12:15 PM 40.8 °F 33.3 °F 25.5 °F 55% 29.77 in 10.0 mi SSE 13.8 mph 19.6 mph N/A   Clear
12:34 PM 41.9 °F 34.6 °F 26.4 °F 54% 29.76 in 10.0 mi SSE 13.8 mph 21.9 mph N/A   Clear
12:55 PM 43.7 °F 36.9 °F 27.3 °F 53% 29.74 in 10.0 mi SSE 13.8 mph 18.4 mph N/A   Clear
1:15 PM 44.6 °F 37.8 °F 28.6 °F 53% 29.73 in 10.0 mi South 15.0 mph 19.6 mph N/A   Clear
1:34 PM 45.7 °F 39.8 °F 29.8 °F 54% 29.72 in 10.0 mi South 12.7 mph 19.6 mph N/A   Clear
1:55 PM 46.4 °F 41.1 °F 30.6 °F 54% 29.71 in 10.0 mi SSE 11.5 mph 18.4 mph N/A   Clear
2:14 PM 46.6 °F - 31.1 °F 55% 29.69 in 10.0 mi SSE 12.7 mph 16.1 mph N/A   Scattered Clouds
2:35 PM 46.9 °F - 32.0 °F 56% 29.68 in 10.0 mi South 12.7 mph 20.7 mph N/A   Mostly Cloudy
2:55 PM 47.8 °F - 32.7 °F 56% 29.68 in 10.0 mi South 10.4 mph 17.3 mph N/A   Overcast
3:15 PM 47.8 °F - 33.1 °F 57% 29.68 in 10.0 mi South 11.5 mph 17.3 mph N/A   Overcast
3:35 PM 47.3 °F - 34.2 °F 60% 29.67 in 10.0 mi South 9.2 mph - N/A   Overcast
3:55 PM 47.3 °F - 33.8 °F 59% 29.66 in 10.0 mi SSE 6.9 mph - N/A   Overcast
4:14 PM 47.3 °F - 34.5 °F 61% 29.65 in 10.0 mi SSE 4.6 mph - N/A   Overcast
4:35 PM 47.3 °F - 36.5 °F 66% 29.64 in 10.0 mi South 11.5 mph - N/A   Overcast
4:55 PM 47.7 °F - 40.5 °F 76% 29.63 in 7.0 mi South 11.5 mph 16.1 mph N/A Rain Light Rain
5:14 PM 47.8 °F - 40.5 °F 76% 29.63 in 10.0 mi South 11.5 mph - N/A   Overcast
5:34 PM 47.8 °F - 40.5 °F 76% 29.62 in 10.0 mi South 10.4 mph - N/A   Overcast
6:15 PM 46.9 °F - 40.3 °F 78% 29.61 in 10.0 mi South 8.1 mph 16.1 mph N/A   Overcast
6:35 PM 46.4 °F 41.9 °F 41.7 °F 84% 29.60 in 7.0 mi SSE 9.2 mph 18.4 mph N/A Rain Rain
6:55 PM 44.6 °F 40.7 °F 42.6 °F 93% 29.60 in 5.0 mi SSE 6.9 mph - N/A Rain Light Rain
7:15 PM 44.6 °F 39.7 °F 43.0 °F 94% 29.59 in 5.0 mi South 9.2 mph - N/A   Drizzle
7:34 PM 45.0 °F 39.7 °F 43.0 °F 93% 29.57 in 10.0 mi South 10.4 mph 20.7 mph N/A Rain Rain
7:55 PM 45.5 °F 39.2 °F 43.2 °F 92% 29.57 in 7.0 mi South 13.8 mph 17.3 mph N/A Rain Rain
8:14 PM 46.0 °F 39.9 °F 42.4 °F 87% 29.55 in 10.0 mi South 13.8 mph 26.5 mph N/A   Light Drizzle
8:35 PM 46.2 °F 39.5 °F 41.4 °F 83% 29.54 in 10.0 mi South 16.1 mph 24.2 mph N/A   Overcast
8:54 PM 46.2 °F 39.5 °F 40.8 °F 81% 29.53 in 10.0 mi South 16.1 mph 25.3 mph N/A Rain Rain
9:14 PM 45.3 °F 37.8 °F 40.6 °F 84% 29.52 in 10.0 mi South 18.4 mph 28.8 mph N/A   Light Drizzle
9:34 PM 44.6 °F 37.2 °F 40.6 °F 86% 29.51 in 10.0 mi South 17.3 mph 24.2 mph N/A   Drizzle
9:53 PM 44.6 °F 36.1 °F 40.5 °F 85% 29.50 in 10.0 mi South 21.9 mph 32.2 mph N/A   Drizzle
10:14 PM 44.2 °F 37.0 °F 41.2 °F 89% 29.49 in 4.0 mi South 16.1 mph 27.6 mph N/A Rain Rain
10:35 PM 44.2 °F 37.0 °F 41.2 °F 89% 29.46 in 7.0 mi South 16.1 mph 26.5 mph N/A Rain Light Rain
11:14 PM 44.4 °F 36.1 °F 41.4 °F 89% 29.43 in 10.0 mi South 20.7 mph 31.1 mph N/A Rain Light Rain
11:35 PM 44.6 °F 36.9 °F 41.4 °F 88% 29.42 in 10.0 mi South 18.4 mph 27.6 mph N/A Rain Light Rain
11:54 PM 44.6 °F 37.2 °F 41.9 °F 90% 29.41 in 5.0 mi South 17.3 mph 28.8 mph N/A Rain Light Rain